Powrót do katalogu

FENGYUN 1C DEB

LostPO
NORAD 31995·DEBRIS·🇨🇳 China

Wystrzelony May 10, 1999 z Taiyuan Satellite Launch Center

Loading…

Następne Przeloty (najbliższe 24 godziny)

TLE

NieaktualneSource: Space-Track

Epoka: Dec 26, 2023, 06:24 UTC

1 31995U 99025CPY 23360.26691458  .00003689  00000-0  26623-2 0  9994
2 31995  98.4024 150.4440 0137356 114.1540 247.4054 13.92796467530014

Śledź FENGYUN 1C DEB w czasie rzeczywistym z AllMySat

Download on the App Store